STARLINK-37512, 69035

Orbit data source: Space-Track

STARLINK-37512, 69035 is a payload satellite owned by SpaceX/Seattle (US) in SSO that was launched on Wed, 06 May 2026 UTC via an FALCON 9 launch vehicle from the Air Force Western Test Range (AFWTR). Payload-class satellites include a variety of spacecraft equipped with specific instruments for various scientific and technological missions. These include communications satellites like Starlink; space stations such as the ISS; scientific satellites like the Hubble; Earth observation satellites from companies like Planet Labs, Umbra, and HawkEye 360; GPS; miniature CubeSats for education and research; and military/defense satellites.

Loading next visibility...
Identifier
69035, 2026-101L
Orbit
SSO
Country
Flag of USUS
Related business
Manufacturer
SpaceX/Seattle
Mission
Operational spacecraft
Bus & Motor
STARLINK V2MO, Unknown motor
Mass
575 kg wet, ~530 kg dry
Launch date (UTC)
2026-05-06 (1 month ago)
Launch vehicle
FALCON 9
Launch site
Air Force Western Test Range (AFWTR)
Object type
Payload
Rocket body
Debris
Shape & HBR
Unknown shape, 14.5 m
Radar Cross Section
Large (>1 m²)

Expand to show TLE details & history
Last TLE update: 12 hours ago

TLE from 12 hours ago
0 STARLINK-37512
1 69035U 26101L   26168.55798109  .00008050  00000-0  25142-3 0  9990
2 69035  97.2841  23.4599 0001428 105.8564 254.2836 15.33443449  6637
Epoch: 2026-06-17T13:23Z
TLE epoch observation values (Epoch: 2026-06-17T13:23:29.566Z)
Latitude
-0.00003°
Longitude
-83.22723°
Altitude
468.925 km
Speed
7.632 km/s
True Right ascension
01h 33m 50s
True Declination
0° 00' 00"
Sunlit
Object was in daylight at epoch
Visualization orbit readout
Latitude
Unknown
Longitude
Unknown
Altitude
Unknown
Speed
Unknown
Apparent Right ascension
Unknown
Apparent Declination
Unknown
Sunlit
N/A
Visualization observer readout
Local Sidereal Time
12:21:51
Azimuth
Unknown
Elevation
Unknown
Doppler factor
Unknown
Orbital elements
Apogee altitude
463.467 km
Perigee altitude
461.514 km
Semi-major axis
6,840.628 km
Eccentricity
0.00014
Inclination
97.2841°
RAAN
23.4599°
Arg. of periapsis
105.8564°
True anomaly
254.26785°
Mean anomaly
254.2836°
Eccentric anomaly
254.27572°
Mean motion
3.83618 °/min
Orbital period
93.84 mins
BSTAR
0.00025142
Loading maneuver chart data...
Computing Atmospheric mass density...
Loading historical data...
Loading historical data...
Loading historical data...
Loading historical data...
Loading historical data...
Loading historical data...
Loading historical data...

Documentation

Showing up to 5 results
|